Weather History for Shirley, NY

Change the Weather History Date:

Tuesday, November 29, 2011

  Actual Average (KISP) Record (KISP)
Temperature  
Mean Temperature 60 °F 41 °F  
Max Temperature 66 °F 49 °F 66 °F (1991)
Min Temperature 53 °F 33 °F 21 °F (2014)
Degree Days  
Heating Degree Days 6 24  
Month to date heating degree days 570  
Since 1 July heating degree days 990  
Cooling Degree Days 0 0  
Month to date cooling degree days 0  
Year to date cooling degree days 787  
Growing Degree Days 10 (Base 50)    
Moisture  
Dew Point 56 °F    
Average Humidity 89    
Maximum Humidity 100    
Minimum Humidity 68    
Precipitation  
Precipitation 0.78 in 0.14 in 0.55 in (2011)
Month to date precipitation 3.53  
Year to date precipitation 42.04  
Snow  
Snow 0.00 in 0.00 in 3.00 in (1995)
Month to date snowfall 0.4  
Since 1 July snowfall 0.4  
Snow Depth -    
Sea Level Pressure  
Sea Level Pressure 29.84 in    
Wind  
Wind Speed 9 mph (SSE)    
Max Wind Speed 20 mph    
Max Gust Speed 32 mph    
Visibility 8 miles    
Events Rain    
T = Trace of Precipitation, MM = Missing Value Source: NWS Daily Summary

Daily Weather History Graph

Daily Weather History Graph

Search for Another Location

Airport:

Trip Planner

Search our weather history database for the weather conditions in past years. The results will help you decide how hot, cold, wet, or windy it might be!

Date:

Astronomy

Nov. 29, 2011 Rise Set
Actual Time 6:54 AM EST 4:25 PM EST
Civil Twilight 6:23 AM EST 4:55 PM EST
Nautical Twilight 5:49 AM EST 5:29 PM EST
Astronomical Twilight 5:16 AM EST 6:02 PM EST
Moon 10:38 AM EST (11/29) 9:16 PM EST (11/29)
Length of Visible Light 10h 31m
Length of Day
9h 31m
Waxing Crescent, 24% of the Moon is Illuminated
Nov 29
Waxing Crescent
Dec 2
First Quarter
Dec 10
Full
Dec 17
Last Quarter
Dec 24
New

Hourly Weather History & Observations

Time (EST) Temp. Dew Point Humidity Pressure Visibility Wind Dir Wind Speed Gust Speed Precip Events Conditions
1:56 AM 59.0 °F 55.0 °F 87% 30.10 in 10.0 mi SSE 6.9 mph - N/A   Partly Cloudy
2:56 AM 57.9 °F 55.0 °F 90% 30.09 in 10.0 mi SE 4.6 mph - N/A   Overcast
3:56 AM 57.9 °F 54.0 °F 87% 30.08 in 10.0 mi SE 4.6 mph - N/A   Overcast
4:56 AM 60.1 °F 55.0 °F 83% 30.06 in 10.0 mi ESE 4.6 mph - N/A   Overcast
5:56 AM 60.1 °F 55.9 °F 86% 30.05 in 10.0 mi SE 5.8 mph - N/A   Overcast
6:56 AM 60.1 °F 55.9 °F 86% 30.04 in 10.0 mi SSE 11.5 mph 16.1 mph N/A   Overcast
7:56 AM 60.1 °F 55.9 °F 86% 30.04 in 10.0 mi SE 5.8 mph - N/A   Overcast
9:56 AM 66.0 °F 55.0 °F 68% 30.04 in 10.0 mi South 11.5 mph 26.5 mph N/A   Overcast
11:56 AM 62.1 °F 57.9 °F 86% 29.97 in 10.0 mi SE 6.9 mph - 0.02 in   Overcast
1:56 PM 63.0 °F 57.0 °F 81% 29.89 in 10.0 mi SE 16.1 mph 32.2 mph N/A   Mostly Cloudy
2:56 PM 62.1 °F 55.9 °F 80% 29.87 in 10.0 mi SE 9.2 mph 19.6 mph N/A   Overcast
3:56 PM 62.1 °F 55.9 °F 80% 29.86 in 10.0 mi SE 13.8 mph 20.7 mph N/A   Overcast
4:56 PM 62.1 °F 59.0 °F 90% 29.84 in 7.0 mi SE 10.4 mph - 0.01 in Rain Light Rain
5:56 PM 61.0 °F 57.9 °F 90% 29.83 in 10.0 mi SE 10.4 mph 23.0 mph 0.01 in   Overcast
6:40 PM 60.8 °F 57.2 °F 88% 29.81 in 3.0 mi SSE 19.6 mph 29.9 mph 0.01 in Rain Light Rain
6:54 PM 60.8 °F 59.0 °F 94% 29.80 in 10.0 mi SE 13.8 mph 25.3 mph 0.01 in   Overcast
6:56 PM 61.0 °F 59.0 °F 93% 29.81 in 10.0 mi SSE 16.1 mph 25.3 mph 0.01 in   Overcast
7:42 PM 60.8 °F 59.0 °F 94% 29.76 in 10.0 mi SE 11.5 mph 21.9 mph 0.01 in   Overcast
7:56 PM 61.0 °F 59.0 °F 93% 29.75 in 8.0 mi SE 13.8 mph 21.9 mph 0.01 in Rain Light Rain
8:34 PM 62.6 °F 60.8 °F 94% 29.74 in 3.0 mi SSE 12.7 mph 21.9 mph 0.31 in Rain Rain
8:41 PM 62.6 °F 60.8 °F 94% 29.74 in 3.0 mi SSE 12.7 mph - 0.34 in Rain Rain
8:56 PM 61.0 °F 60.1 °F 97% 29.72 in 4.0 mi SE 12.7 mph - 0.36 in Rain Light Rain
9:18 PM 60.8 °F 60.8 °F 100% 29.71 in 2.5 mi South 10.4 mph - 0.12 in Rain Heavy Rain
9:26 PM 60.8 °F 60.8 °F 100% 29.71 in 4.0 mi SSE 12.7 mph - 0.16 in Rain Heavy Rain
9:47 PM 57.2 °F 55.4 °F 94% 29.70 in 6.0 mi SW 10.4 mph 20.7 mph 0.20 in Rain Rain
9:56 PM 57.0 °F 55.0 °F 93% 29.71 in 10.0 mi SW 11.5 mph 19.6 mph 0.21 in Rain Light Rain
10:56 PM 54.0 °F 52.0 °F 93% 29.71 in 10.0 mi SSW 9.2 mph - 0.15 in Rain Light Rain
11:03 PM 53.6 °F 51.8 °F 94% 29.71 in 10.0 mi SW 9.2 mph - 0.00 in   Overcast
11:17 PM 53.6 °F 51.8 °F 94% 29.69 in 10.0 mi WSW 6.9 mph - 0.00 in   Overcast
11:52 PM 53.6 °F 50.0 °F 88% 29.68 in 10.0 mi SW 6.9 mph 18.4 mph 0.00 in Rain Light Rain
11:56 PM 53.1 °F 50.0 °F 89% 29.67 in 10.0 mi SW 6.9 mph - 0.00 in Rain Light Rain